Location: Newark
(0.5300°S, 127.4800°E)
Time: 12:32:26
(UTC+00:00)

Vanguard 3 - Pass Details

Date: 27 September 2019
Orbit: 508 x 3262 km, 33.3° (Epoch: 21 October)

Event Time Altitude Azimuth Distance (km) Brightness Sun altitude
Rises 07:40:36 0° 288° (WNW) 6,872 13.0 25.2°
Reaches altitude 10° 07:46:15 10° 281° (W) 5,525 13.2 23.8°
Maximum altitude 07:59:38 36° 221° (SW) 2,813 10.7 20.4°
Drops below altitude 10° 08:07:59 10° 157° (SSE) 3,436 10.2 18.3°
Sets 08:10:39 0° 147° (SSE) 4,087 10.4 17.7°
